Showing default

ASTRA 2G, 40364

Orbit data source: Space-Track

ASTRA 2G, 40364 is a payload satellite owned by SES (LU) in GEO that was launched on Sat, 27 Dec 2014 UTC via a PROTON-M/BRIZ-M launch vehicle from the Tyuratam Missile And Space Complex (TTMTR). Payloads include a variety of satellites, spacecraft, and rockets equipped with specific instruments for various scientific and technological missions. These include communications satellites like Starlink; space stations such as the ISS; scientific satellites like the Hubble; Earth observation satellites from companies like Planet Labs, Umbra, and HawkEye 360; GPS; miniature CubeSats for education and research; and military/defense satellites.

Not visible in the next 10 days
ASTRA 2G details
Identifier
40364, 2014-089A
Orbit
GEO
Last TLE update8 hours ago
Origin
Flag of LUSES (LU / SES)
ManufacturerAirbus/Toulouse
MissionOperational Commercial Communications
Bus & MotorEUROSTAR 3000, R-4D?
Mass6,002 kg wet, ~3,000 kg dry
Launch date (UTC)
2014-12-27 (10 years ago)
Launch vehicle
PROTON-M/BRIZ-M
Launch site
Tyuratam Missile And Space Complex (TTMTR)
Object type
Payload
Rocket body
Debris
Shape & HBRBox + 2 Pan, 39.8 m
Radar Cross Section50.725 m², Large (>1 m²)

Expand to show TLE details & history

TLE from 8 hours ago
0 ASTRA 2G
1 40364U 14089A   24361.24917830  .00000178  00000-0  00000-0 0  9995
2 40364   0.0430   1.3785 0001560  23.0313 188.7307  1.00270689 36572
Epoch: 2024-12-26T05:58Z
Definitive object data (Epoch: 2024-12-26T05:58:49.005Z)
Latitude-0.03591°
Longitude28.19481°
Altitude35,792.884 km
Speed3.074 km/s
True Right ascension14h 12m 31s
True Declination0° 02' 09"
Sunlit
Object was in daylight at TLE epoch
Visualization TLE readout
Latitude-0.03638°
Longitude141.61177°
Altitude35,782.887 km
Speed3.075 km/s
Apparent Right ascension22h 04m 06s
Apparent Declination-5° 07' 41"
Sunlit
Object is in daylight
Visualization observer readout
Local Sidereal Time12:52:59
Azimuth58.84° ENE
Elevation-38.54°
Doppler factor1
Orbital elements
Apogee altitude35,794.55 km
Perigee altitude35,781.395 km
Semi-major axis42,166.11 km
Eccentricity0.000156
Inclination0.043°
RAAN1.3785°
Arg. of periapsis23.0313°
True anomaly188.72799°
Mean anomaly188.7307°
Eccentric anomaly188.72934°
Mean motion0.25067 °/min
BSTARUnknown
Orbital period1436.17 mins
Loading historical data...
40364 neighbors
Authenticating...
Loading maneuver chart data...
Loading historical data...
Loading historical data...
Loading historical data...
Loading historical data...
Loading historical data...
Loading historical data...
Loading historical data...
Other satellites on launch #89 in the year 2014 (2014-12-27 UTC)

ASTRA 2G Visibility forecast

Observer location: undefined°, undefined

ASTRA 2G is not visible in the next 10 days
Span
Click to sort rows by Start time (UTC) header in descending order
Start Az.
Max El. time (UTC)
Max El. Az.
Max El.
End time (UTC)
End Az.
|